DELTA 1 DEB, 7838

Orbit data source: Space-Track

DELTA 1 DEB, 7838 is space debris in SSO originally from a launch on Sun, 23 Jul 1972 UTC launched from the Air Force Western Test Range (AFWTR). Debris objects in space refer to the collection of defunct objects orbiting the Earth. Examples of debris include non-operational satellites, rocket bodies, and fragments generated from explosions, collisions, or faulty payload assembly.

Loading next visibility...
Identifier
7838, 1972-058J
Orbit
SSO
Country
Flag of USUS
Related business
Manufacturer
Unknown
Mission
Spacecraft
Bus & Motor
Unknown
Mass
Unknown
Launch date (UTC)
1972-07-23 (53 years ago)
Launch vehicle
Unknown
Launch site
Air Force Western Test Range (AFWTR)
Object type
Payload
Rocket body
Debris
Shape & HBR
Unknown shape, 0.2 m
Radar Cross Section
Medium (>0.1 m² and <1 m²)

Expand to show TLE details & history
Last TLE update: 16 hours ago

TLE from 16 hours ago
0 DELTA 1 DEB
1 07838U 72058J   25340.81674414  .00001542  00000-0  69443-3 0  9998
2 07838  98.1199  93.4145 0301626 317.9675  39.8700 14.02157314543060
Epoch: 2025-12-06T19:36Z
TLE epoch observation values (Epoch: 2025-12-06T19:36:06.693Z)
Latitude
-0.00001°
Longitude
83.54757°
Altitude
723.857 km
Speed
7.578 km/s
True Right ascension
06h 13m 39s
True Declination
0° 00' 00"
Sunlit
Object was in full shadow at epoch
Visualization orbit readout
Latitude
Unknown
Longitude
Unknown
Altitude
Unknown
Speed
Unknown
Apparent Right ascension
Unknown
Apparent Declination
Unknown
Sunlit
N/A
Visualization observer readout
Local Sidereal Time
09:49:18
Azimuth
Unknown
Elevation
Unknown
Doppler factor
Unknown
Orbital elements
Apogee altitude
1,102.515 km
Perigee altitude
664.456 km
Semi-major axis
7,261.623 km
Eccentricity
0.03016
Inclination
98.1199°
RAAN
93.4145°
Arg. of periapsis
317.9675°
True anomaly
42.15104°
Mean anomaly
39.87°
Eccentric anomaly
41.00388°
Mean motion
3.50746 °/min
Orbital period
102.64 mins
BSTAR
0.00069443
Loading maneuver chart data...
Computing Atmospheric mass density...
Loading historical data...
Loading historical data...
Loading historical data...
Loading historical data...
Loading historical data...
Loading historical data...
Loading historical data...

Documentation

Showing up to 5 results
|